Year,Month,Day,Hour,Minute,Value (Times are PST for temperature in C)
2007,07,10,00,00,17.20
2007,07,10,00,01,17.20
2007,07,10,00,02,17.20
2007,07,10,00,03,17.20
2007,07,10,00,04,17.20
2007,07,10,00,05,17.20
2007,07,10,00,06,17.20
2007,07,10,00,07,17.20
2007,07,10,00,08,17.20
2007,07,10,00,09,17.20
2007,07,10,00,10,17.20
2007,07,10,00,11,17.20
2007,07,10,00,12,17.10
2007,07,10,00,13,17.10
2007,07,10,00,14,17.10
2007,07,10,00,15,17.00
2007,07,10,00,16,17.00
2007,07,10,00,17,17.00
2007,07,10,00,18,16.90
2007,07,10,00,19,16.90
2007,07,10,00,20,16.80
2007,07,10,00,21,16.70
2007,07,10,00,22,16.70
2007,07,10,00,23,16.60
2007,07,10,00,24,16.60
2007,07,10,00,25,16.60
2007,07,10,00,26,16.60
2007,07,10,00,27,16.40
2007,07,10,00,28,16.40
2007,07,10,00,29,16.40
2007,07,10,00,30,16.40
2007,07,10,00,31,16.40
2007,07,10,00,32,16.50
2007,07,10,00,33,16.50
2007,07,10,00,34,16.40
2007,07,10,00,35,16.40
2007,07,10,00,36,16.40
2007,07,10,00,37,16.40
2007,07,10,00,38,16.40
2007,07,10,00,39,16.40
2007,07,10,00,40,16.40
2007,07,10,00,41,16.40
2007,07,10,00,42,16.30
2007,07,10,00,43,16.30
2007,07,10,00,44,16.30
2007,07,10,00,45,16.20
2007,07,10,00,46,16.20
2007,07,10,00,47,16.20
2007,07,10,00,48,16.10
2007,07,10,00,49,16.10
2007,07,10,00,50,16.10
2007,07,10,00,51,16.10
2007,07,10,00,52,16.10
2007,07,10,00,53,16.10
2007,07,10,00,54,16.10
2007,07,10,00,55,16.10
2007,07,10,00,56,16.10
2007,07,10,00,57,16.00
2007,07,10,00,58,15.90
2007,07,10,00,59,15.90
2007,07,10,01,00,15.90
2007,07,10,01,01,15.90
2007,07,10,01,02,15.90
2007,07,10,01,03,15.90
2007,07,10,01,04,15.90
2007,07,10,01,05,15.80
2007,07,10,01,06,15.80
2007,07,10,01,07,15.80
2007,07,10,01,08,15.80
2007,07,10,01,09,15.80
2007,07,10,01,10,15.80
2007,07,10,01,11,15.90
2007,07,10,01,12,15.90
2007,07,10,01,13,15.90
2007,07,10,01,14,15.90
2007,07,10,01,15,15.90
2007,07,10,01,16,15.90
2007,07,10,01,17,15.90
2007,07,10,01,18,15.90
2007,07,10,01,19,15.80
2007,07,10,01,20,15.80
2007,07,10,01,21,15.80
2007,07,10,01,22,15.80
2007,07,10,01,23,15.80
2007,07,10,01,24,15.80
2007,07,10,01,25,15.80
2007,07,10,01,26,15.80
2007,07,10,01,27,15.80
2007,07,10,01,28,15.80
2007,07,10,01,29,15.80
2007,07,10,01,30,15.80
2007,07,10,01,31,15.80
2007,07,10,01,32,15.70
2007,07,10,01,33,15.70
2007,07,10,01,34,15.70
2007,07,10,01,35,15.70
2007,07,10,01,36,15.70
2007,07,10,01,37,15.70
2007,07,10,01,38,15.60
2007,07,10,01,39,15.60
2007,07,10,01,40,15.60
2007,07,10,01,41,15.60
2007,07,10,01,42,15.60
2007,07,10,01,43,15.60
2007,07,10,01,44,15.60
2007,07,10,01,45,15.60
2007,07,10,01,46,15.60
2007,07,10,01,47,15.60
2007,07,10,01,48,15.60
2007,07,10,01,49,15.60
2007,07,10,01,50,15.50
2007,07,10,01,51,15.60
2007,07,10,01,52,15.50
2007,07,10,01,53,15.50
2007,07,10,01,54,15.50
2007,07,10,01,55,15.50
2007,07,10,01,56,15.50
2007,07,10,01,57,15.50
2007,07,10,01,58,15.40
2007,07,10,01,59,15.40
2007,07,10,02,00,15.40
2007,07,10,02,01,15.40
2007,07,10,02,02,15.40
2007,07,10,02,03,15.30
2007,07,10,02,04,15.30
2007,07,10,02,05,15.40
2007,07,10,02,06,15.40
2007,07,10,02,07,15.40
2007,07,10,02,08,15.40
2007,07,10,02,09,15.40
2007,07,10,02,10,15.40
2007,07,10,02,11,15.40
2007,07,10,02,12,15.40
2007,07,10,02,13,15.40
2007,07,10,02,14,15.40
2007,07,10,02,15,15.40
2007,07,10,02,16,15.30
2007,07,10,02,17,15.30
2007,07,10,02,18,15.30
2007,07,10,02,19,15.30
2007,07,10,02,20,15.30
2007,07,10,02,21,15.30
2007,07,10,02,22,15.20
2007,07,10,02,23,15.20
2007,07,10,02,24,15.20
2007,07,10,02,25,15.10
2007,07,10,02,26,15.10
2007,07,10,02,27,15.10
2007,07,10,02,28,15.00
2007,07,10,02,29,15.00
2007,07,10,02,30,15.00
2007,07,10,02,31,15.00
2007,07,10,02,32,14.90
2007,07,10,02,33,14.90
2007,07,10,02,34,14.90
2007,07,10,02,35,14.90
2007,07,10,02,36,14.90
2007,07,10,02,37,14.90
2007,07,10,02,38,14.90
2007,07,10,02,39,14.90
2007,07,10,02,40,14.90
2007,07,10,02,41,14.90
2007,07,10,02,42,14.90
2007,07,10,02,43,14.90
2007,07,10,02,44,14.90
2007,07,10,02,45,14.90
2007,07,10,02,46,14.90
2007,07,10,02,47,14.90
2007,07,10,02,48,14.80
2007,07,10,02,49,14.80
2007,07,10,02,50,14.80
2007,07,10,02,51,14.80
2007,07,10,02,52,14.70
2007,07,10,02,53,14.70
2007,07,10,02,54,14.70
2007,07,10,02,55,14.70
2007,07,10,02,56,14.70
2007,07,10,02,57,14.60
2007,07,10,02,58,14.60
2007,07,10,02,59,14.70
2007,07,10,03,00,14.70
2007,07,10,03,01,14.70
2007,07,10,03,02,14.70
2007,07,10,03,03,14.70
2007,07,10,03,04,14.70
2007,07,10,03,05,14.70
2007,07,10,03,06,14.70
2007,07,10,03,07,14.70
2007,07,10,03,08,14.70
2007,07,10,03,09,14.70
2007,07,10,03,10,14.70
2007,07,10,03,11,14.80
2007,07,10,03,12,14.80
2007,07,10,03,13,14.80
2007,07,10,03,14,14.80
2007,07,10,03,15,14.80
2007,07,10,03,16,14.80
2007,07,10,03,17,14.90
2007,07,10,03,18,14.90
2007,07,10,03,19,14.80
2007,07,10,03,20,14.80
2007,07,10,03,21,14.80
2007,07,10,03,22,14.80
2007,07,10,03,23,14.80
2007,07,10,03,24,14.80
2007,07,10,03,25,14.80
2007,07,10,03,26,14.80
2007,07,10,03,27,14.70
2007,07,10,03,28,14.70
2007,07,10,03,29,14.70
2007,07,10,03,30,14.80
2007,07,10,03,31,14.80
2007,07,10,03,32,14.70
2007,07,10,03,33,14.70
2007,07,10,03,34,14.70
2007,07,10,03,35,14.80
2007,07,10,03,36,14.80
2007,07,10,03,37,14.70
2007,07,10,03,38,14.70
2007,07,10,03,39,14.70
2007,07,10,03,40,14.60
2007,07,10,03,41,14.60
2007,07,10,03,42,14.60
2007,07,10,03,43,14.60
2007,07,10,03,44,14.50
2007,07,10,03,45,14.50
2007,07,10,03,46,14.50
2007,07,10,03,47,14.50
2007,07,10,03,48,14.50
2007,07,10,03,49,14.40
2007,07,10,03,50,14.40
2007,07,10,03,51,14.40
2007,07,10,03,52,14.40
2007,07,10,03,53,14.30
2007,07,10,03,54,14.30
2007,07,10,03,55,14.30
2007,07,10,03,56,14.30
2007,07,10,03,57,14.30
2007,07,10,03,58,14.30
2007,07,10,03,59,14.20
2007,07,10,04,00,14.20
2007,07,10,04,01,14.20
2007,07,10,04,02,14.30
2007,07,10,04,03,14.40
2007,07,10,04,04,14.40
2007,07,10,04,05,14.30
2007,07,10,04,06,14.30
2007,07,10,04,07,14.40
2007,07,10,04,08,14.40
2007,07,10,04,09,14.40
2007,07,10,04,10,14.40
2007,07,10,04,11,14.40
2007,07,10,04,12,14.50
2007,07,10,04,13,14.50
2007,07,10,04,14,14.50
2007,07,10,04,15,14.50
2007,07,10,04,16,14.40
2007,07,10,04,17,14.40
2007,07,10,04,18,14.30
2007,07,10,04,19,14.30
2007,07,10,04,20,14.30
2007,07,10,04,21,14.30
2007,07,10,04,22,14.30
2007,07,10,04,23,14.30
2007,07,10,04,24,14.30
2007,07,10,04,25,14.30
2007,07,10,04,26,14.30
2007,07,10,04,27,14.40
2007,07,10,04,28,14.40
2007,07,10,04,29,14.40
2007,07,10,04,30,14.30
2007,07,10,04,31,14.30
2007,07,10,04,32,14.30
2007,07,10,04,33,14.20
2007,07,10,04,34,14.20
2007,07,10,04,35,14.20
2007,07,10,04,36,14.20
2007,07,10,04,37,14.20
2007,07,10,04,38,14.20
2007,07,10,04,39,14.20
2007,07,10,04,40,14.20
2007,07,10,04,41,14.20
2007,07,10,04,42,14.20
2007,07,10,04,43,14.20
2007,07,10,04,44,14.20
2007,07,10,04,45,14.20
2007,07,10,04,46,14.20
2007,07,10,04,47,14.20
2007,07,10,04,48,14.20
2007,07,10,04,49,14.20
2007,07,10,04,50,14.20
2007,07,10,04,51,14.20
2007,07,10,04,52,14.20
2007,07,10,04,53,14.10
2007,07,10,04,54,14.10
2007,07,10,04,55,14.10
2007,07,10,04,56,14.10
2007,07,10,04,57,14.10
2007,07,10,04,58,14.10
2007,07,10,04,59,14.10
2007,07,10,05,00,14.00
2007,07,10,05,01,14.00
2007,07,10,05,02,14.00
2007,07,10,05,03,14.00
2007,07,10,05,04,14.00
2007,07,10,05,05,14.00
2007,07,10,05,06,13.90
2007,07,10,05,07,13.90
2007,07,10,05,08,13.80
2007,07,10,05,09,13.80
2007,07,10,05,10,13.80
2007,07,10,05,11,13.80
2007,07,10,05,12,13.70
2007,07,10,05,13,13.70
2007,07,10,05,14,13.70
2007,07,10,05,15,13.70
2007,07,10,05,16,13.70
2007,07,10,05,17,13.70
2007,07,10,05,18,13.70
2007,07,10,05,19,13.70
2007,07,10,05,20,13.70
2007,07,10,05,21,13.70
2007,07,10,05,22,13.70
2007,07,10,05,23,13.70
2007,07,10,05,24,13.70
2007,07,10,05,25,13.70
2007,07,10,05,26,13.70
2007,07,10,05,27,13.70
2007,07,10,05,28,13.70
2007,07,10,05,29,13.70
2007,07,10,05,30,13.70
2007,07,10,05,31,13.70
2007,07,10,05,32,13.70
2007,07,10,05,33,13.70
2007,07,10,05,34,13.70
2007,07,10,05,35,13.70
2007,07,10,05,36,13.70
2007,07,10,05,37,13.70
2007,07,10,05,38,13.70
2007,07,10,05,39,13.70
2007,07,10,05,40,13.70
2007,07,10,05,41,13.70
2007,07,10,05,42,13.70
2007,07,10,05,43,13.70
2007,07,10,05,44,13.70
2007,07,10,05,45,13.70
2007,07,10,05,46,13.70
2007,07,10,05,47,13.70
2007,07,10,05,48,13.70
2007,07,10,05,49,13.80
2007,07,10,05,50,13.80
2007,07,10,05,51,13.90
2007,07,10,05,52,13.90
2007,07,10,05,53,13.90
2007,07,10,05,54,13.90
2007,07,10,05,55,13.90
2007,07,10,05,56,14.00
2007,07,10,05,57,14.00
2007,07,10,05,58,14.00
2007,07,10,05,59,14.10
2007,07,10,06,00,14.20
2007,07,10,06,01,14.20
2007,07,10,06,02,14.20
2007,07,10,06,03,14.20
2007,07,10,06,04,14.20
2007,07,10,06,05,14.20
2007,07,10,06,06,14.20
2007,07,10,06,07,14.20
2007,07,10,06,08,14.20
2007,07,10,06,09,14.30
2007,07,10,06,10,14.30
2007,07,10,06,11,14.40
2007,07,10,06,12,14.40
2007,07,10,06,13,14.40
2007,07,10,06,14,14.50
2007,07,10,06,15,14.50
2007,07,10,06,16,14.60
2007,07,10,06,17,14.60
2007,07,10,06,18,14.60
2007,07,10,06,19,14.60
2007,07,10,06,20,14.70
2007,07,10,06,21,14.70
2007,07,10,06,22,14.70
2007,07,10,06,23,14.80
2007,07,10,06,24,14.80
2007,07,10,06,25,14.80
2007,07,10,06,26,14.90
2007,07,10,06,27,15.00
2007,07,10,06,28,15.10
2007,07,10,06,29,15.10
2007,07,10,06,30,15.20
2007,07,10,06,31,15.30
2007,07,10,06,32,15.30
2007,07,10,06,33,15.30
2007,07,10,06,34,15.40
2007,07,10,06,35,15.40
2007,07,10,06,36,15.50
2007,07,10,06,37,15.50
2007,07,10,06,38,15.50
2007,07,10,06,39,15.50
2007,07,10,06,40,15.60
2007,07,10,06,41,15.60
2007,07,10,06,42,15.60
2007,07,10,06,43,15.70
2007,07,10,06,44,15.80
2007,07,10,06,45,15.80
2007,07,10,06,46,15.90
2007,07,10,06,47,15.90
2007,07,10,06,48,16.10
2007,07,10,06,49,16.20
2007,07,10,06,50,16.30
2007,07,10,06,51,16.40
2007,07,10,06,52,16.40
2007,07,10,06,53,16.60
2007,07,10,06,54,16.70
2007,07,10,06,55,16.80
2007,07,10,06,56,16.90
2007,07,10,06,57,16.90
2007,07,10,06,58,17.00
2007,07,10,06,59,17.10
2007,07,10,07,00,17.20
2007,07,10,07,01,17.30
2007,07,10,07,02,17.30
2007,07,10,07,03,17.30
2007,07,10,07,04,17.40
2007,07,10,07,05,17.50
2007,07,10,07,06,17.60
2007,07,10,07,07,17.60
2007,07,10,07,08,17.70
2007,07,10,07,09,17.90
2007,07,10,07,10,18.00
2007,07,10,07,11,18.20
2007,07,10,07,12,18.20
2007,07,10,07,13,18.30
2007,07,10,07,14,18.50
2007,07,10,07,15,18.50
2007,07,10,07,16,18.60
2007,07,10,07,17,18.70
2007,07,10,07,18,18.80
2007,07,10,07,19,18.90
2007,07,10,07,20,19.00
2007,07,10,07,21,19.10
2007,07,10,07,22,19.20
2007,07,10,07,23,19.30
2007,07,10,07,24,19.40
2007,07,10,07,25,19.50
2007,07,10,07,26,19.50
2007,07,10,07,27,19.50
2007,07,10,07,28,19.60
2007,07,10,07,29,19.60
2007,07,10,07,30,19.60
2007,07,10,07,31,19.60
2007,07,10,07,32,19.50
2007,07,10,07,33,19.60
2007,07,10,07,34,19.60
2007,07,10,07,35,19.60
2007,07,10,07,36,19.70
2007,07,10,07,37,19.70
2007,07,10,07,38,19.80
2007,07,10,07,39,19.90
2007,07,10,07,40,19.90
2007,07,10,07,41,20.10
2007,07,10,07,42,20.20
2007,07,10,07,43,20.30
2007,07,10,07,44,20.50
2007,07,10,07,45,20.60
2007,07,10,07,46,20.70
2007,07,10,07,47,20.80
2007,07,10,07,48,20.90
2007,07,10,07,49,20.90
2007,07,10,07,50,21.00
2007,07,10,07,51,21.00
2007,07,10,07,52,21.00
2007,07,10,07,53,21.00
2007,07,10,07,54,21.00
2007,07,10,07,55,21.10
2007,07,10,07,56,21.20
2007,07,10,07,57,21.30
2007,07,10,07,58,21.30
2007,07,10,07,59,21.30
2007,07,10,08,00,21.30
2007,07,10,08,01,21.30
2007,07,10,08,02,21.30
2007,07,10,08,03,21.40
2007,07,10,08,04,21.40
2007,07,10,08,05,21.40
2007,07,10,08,06,21.60
2007,07,10,08,07,21.60
2007,07,10,08,08,21.60
2007,07,10,08,09,21.60
2007,07,10,08,10,21.60
2007,07,10,08,11,21.60
2007,07,10,08,12,21.70
2007,07,10,08,13,21.70
2007,07,10,08,14,21.80
2007,07,10,08,15,21.80
2007,07,10,08,16,21.80
2007,07,10,08,17,21.90
2007,07,10,08,18,21.90
2007,07,10,08,19,21.90
2007,07,10,08,20,21.90
2007,07,10,08,21,21.90
2007,07,10,08,22,21.90
2007,07,10,08,23,21.90
2007,07,10,08,24,21.90
2007,07,10,08,25,21.90
2007,07,10,08,26,21.90
2007,07,10,08,27,22.00
2007,07,10,08,28,22.00
2007,07,10,08,29,21.90
2007,07,10,08,30,21.90
2007,07,10,08,31,21.90
2007,07,10,08,32,21.90
2007,07,10,08,33,21.90
2007,07,10,08,34,21.90
2007,07,10,08,35,22.10
2007,07,10,08,36,22.10
2007,07,10,08,37,22.20
2007,07,10,08,38,22.30
2007,07,10,08,39,22.40
2007,07,10,08,40,22.50
2007,07,10,08,41,22.60
2007,07,10,08,42,22.70
2007,07,10,08,43,22.90
2007,07,10,08,44,23.10
2007,07,10,08,45,23.20
2007,07,10,08,46,23.30
2007,07,10,08,47,23.30
2007,07,10,08,48,23.40
2007,07,10,08,49,23.60
2007,07,10,08,50,23.70
2007,07,10,08,51,23.70
2007,07,10,08,52,23.80
2007,07,10,08,53,23.90
2007,07,10,08,54,24.00
2007,07,10,08,55,24.10
2007,07,10,08,56,24.30
2007,07,10,08,57,24.40
2007,07,10,08,58,24.50
2007,07,10,08,59,24.60
2007,07,10,09,00,24.60
2007,07,10,09,01,24.60
2007,07,10,09,02,24.60
2007,07,10,09,03,24.60
2007,07,10,09,04,24.60
2007,07,10,09,05,24.70
2007,07,10,09,06,24.80
2007,07,10,09,07,24.90
2007,07,10,09,08,25.00
2007,07,10,09,09,25.20
2007,07,10,09,10,25.40
2007,07,10,09,11,25.50
2007,07,10,09,12,25.60
2007,07,10,09,13,25.80
2007,07,10,09,14,25.90
2007,07,10,09,15,25.90
2007,07,10,09,16,26.00
2007,07,10,09,17,26.10
2007,07,10,09,18,26.20
2007,07,10,09,19,26.20
2007,07,10,09,20,26.30
2007,07,10,09,21,26.30
2007,07,10,09,22,26.40
2007,07,10,09,23,26.50
2007,07,10,09,24,26.60
2007,07,10,09,25,26.60
2007,07,10,09,26,26.60
2007,07,10,09,27,26.70
2007,07,10,09,28,26.80
2007,07,10,09,29,26.80
2007,07,10,09,30,26.80
2007,07,10,09,31,26.80
2007,07,10,09,32,26.90
2007,07,10,09,33,26.90
2007,07,10,09,34,27.10
2007,07,10,09,35,27.00
2007,07,10,09,36,26.80
2007,07,10,09,37,26.50
2007,07,10,09,38,26.00
2007,07,10,09,39,25.70
2007,07,10,09,40,25.50
2007,07,10,09,41,25.40
2007,07,10,09,42,25.30
2007,07,10,09,43,25.10
2007,07,10,09,44,25.00
2007,07,10,09,45,24.90
2007,07,10,09,46,24.50
2007,07,10,09,47,24.20
2007,07,10,09,48,24.10
2007,07,10,09,49,24.10
2007,07,10,09,50,24.10
2007,07,10,09,51,24.10
2007,07,10,09,52,24.10
2007,07,10,09,53,24.10
2007,07,10,09,54,24.00
2007,07,10,09,55,24.10
2007,07,10,09,56,24.10
2007,07,10,09,57,24.00
2007,07,10,09,58,23.90
2007,07,10,09,59,23.70
2007,07,10,10,00,23.60
2007,07,10,10,01,23.50
2007,07,10,10,02,23.30
2007,07,10,10,03,23.30
2007,07,10,10,04,23.30
2007,07,10,10,05,23.20
2007,07,10,10,06,23.20
2007,07,10,10,07,23.00
2007,07,10,10,08,22.90
2007,07,10,10,09,22.80
2007,07,10,10,10,22.80
2007,07,10,10,11,22.90
2007,07,10,10,12,23.00
2007,07,10,10,13,23.10
2007,07,10,10,14,23.20
2007,07,10,10,15,23.10
2007,07,10,10,16,23.10
2007,07,10,10,17,23.20
2007,07,10,10,18,23.30
2007,07,10,10,19,23.30
2007,07,10,10,20,23.40
2007,07,10,10,21,23.40
2007,07,10,10,22,23.40
2007,07,10,10,23,23.40
2007,07,10,10,24,23.40
2007,07,10,10,25,23.40
2007,07,10,10,26,23.40
2007,07,10,10,27,23.40
2007,07,10,10,28,23.40
2007,07,10,10,29,23.40
2007,07,10,10,30,23.40
2007,07,10,10,31,23.30
2007,07,10,10,32,23.50
2007,07,10,10,33,23.70
2007,07,10,10,34,23.80
2007,07,10,10,35,23.90
2007,07,10,10,36,24.10
2007,07,10,10,37,24.10
2007,07,10,10,38,24.20
2007,07,10,10,39,24.20
2007,07,10,10,40,24.20
2007,07,10,10,41,24.20
2007,07,10,10,42,24.30
2007,07,10,10,43,24.30
2007,07,10,10,44,24.20
2007,07,10,10,45,24.20
2007,07,10,10,46,24.20
2007,07,10,10,47,24.20
2007,07,10,10,48,24.20
2007,07,10,10,49,24.20
2007,07,10,10,50,24.20
2007,07,10,10,51,24.10
2007,07,10,10,52,24.00
2007,07,10,10,53,23.80
2007,07,10,10,54,23.80
2007,07,10,10,55,23.60
2007,07,10,10,56,23.60
2007,07,10,10,57,23.60
2007,07,10,10,58,23.60
2007,07,10,10,59,23.60
2007,07,10,11,00,23.60
2007,07,10,11,01,23.60
2007,07,10,11,02,23.60
2007,07,10,11,03,23.70
2007,07,10,11,04,23.70
2007,07,10,11,05,23.90
2007,07,10,11,06,24.00
2007,07,10,11,07,24.10
2007,07,10,11,08,24.10
2007,07,10,11,09,24.20
2007,07,10,11,10,24.30
2007,07,10,11,11,24.40
2007,07,10,11,12,24.40
2007,07,10,11,13,24.60
2007,07,10,11,14,24.70
2007,07,10,11,15,24.60
2007,07,10,11,16,24.60
2007,07,10,11,17,24.60
2007,07,10,11,18,24.60
2007,07,10,11,19,24.70
2007,07,10,11,20,24.80
2007,07,10,11,21,24.90
2007,07,10,11,22,25.10
2007,07,10,11,23,25.30
2007,07,10,11,24,25.40
2007,07,10,11,25,25.60
2007,07,10,11,26,25.70
2007,07,10,11,27,25.70
2007,07,10,11,28,25.60
2007,07,10,11,29,25.60
2007,07,10,11,30,25.60
2007,07,10,11,31,25.60
2007,07,10,11,32,25.60
2007,07,10,11,33,25.60
2007,07,10,11,34,25.70
2007,07,10,11,35,25.80
2007,07,10,11,36,25.80
2007,07,10,11,37,25.80
2007,07,10,11,38,25.70
2007,07,10,11,39,25.60
2007,07,10,11,40,25.60
2007,07,10,11,41,25.60
2007,07,10,11,42,25.50
2007,07,10,11,43,25.50
2007,07,10,11,44,25.40
2007,07,10,11,45,25.50
2007,07,10,11,46,25.40
2007,07,10,11,47,25.40
2007,07,10,11,48,25.60
2007,07,10,11,49,25.60
2007,07,10,11,50,25.60
2007,07,10,11,51,25.50
2007,07,10,11,52,25.40
2007,07,10,11,53,25.30
2007,07,10,11,54,25.30
2007,07,10,11,55,25.30
2007,07,10,11,56,25.40
2007,07,10,11,57,25.60
2007,07,10,11,58,25.80
2007,07,10,11,59,25.90
2007,07,10,12,00,26.00
2007,07,10,12,01,26.10
2007,07,10,12,02,26.20
2007,07,10,12,03,26.20
2007,07,10,12,04,26.20
2007,07,10,12,05,26.30
2007,07,10,12,06,26.50
2007,07,10,12,07,26.60
2007,07,10,12,08,26.60
2007,07,10,12,09,26.60
2007,07,10,12,10,26.60
2007,07,10,12,11,26.60
2007,07,10,12,12,26.60
2007,07,10,12,13,26.60
2007,07,10,12,14,26.60
2007,07,10,12,15,26.60
2007,07,10,12,16,26.60
2007,07,10,12,17,26.60
2007,07,10,12,18,26.60
2007,07,10,12,19,26.60
2007,07,10,12,20,26.60
2007,07,10,12,21,26.60
2007,07,10,12,22,26.60
2007,07,10,12,23,26.60
2007,07,10,12,24,26.60
2007,07,10,12,25,26.60
2007,07,10,12,26,26.80
2007,07,10,12,27,27.00
2007,07,10,12,28,27.20
2007,07,10,12,29,27.30
2007,07,10,12,30,27.30
2007,07,10,12,31,27.20
2007,07,10,12,32,26.90
2007,07,10,12,33,26.70
2007,07,10,12,34,26.70
2007,07,10,12,35,26.70
2007,07,10,12,36,26.70
2007,07,10,12,37,26.90
2007,07,10,12,38,26.90
2007,07,10,12,39,26.90
2007,07,10,12,40,26.80
2007,07,10,12,41,26.60
2007,07,10,12,42,26.40
2007,07,10,12,43,26.30
2007,07,10,12,44,26.30
2007,07,10,12,45,26.30
2007,07,10,12,46,26.50
2007,07,10,12,47,26.60
2007,07,10,12,48,26.60
2007,07,10,12,49,26.60
2007,07,10,12,50,26.50
2007,07,10,12,51,26.30
2007,07,10,12,52,26.30
2007,07,10,12,53,26.20
2007,07,10,12,54,26.10
2007,07,10,12,55,26.10
2007,07,10,12,56,25.90
2007,07,10,12,57,25.80
2007,07,10,12,58,25.60
2007,07,10,12,59,25.50
2007,07,10,13,00,25.40
2007,07,10,13,01,25.40
2007,07,10,13,02,25.40
2007,07,10,13,03,25.60
2007,07,10,13,04,25.70
2007,07,10,13,05,25.60
2007,07,10,13,06,25.60
2007,07,10,13,07,25.70
2007,07,10,13,08,25.80
2007,07,10,13,09,25.80
2007,07,10,13,10,25.80
2007,07,10,13,11,25.80
2007,07,10,13,12,25.80
2007,07,10,13,13,25.80
2007,07,10,13,14,25.80
2007,07,10,13,15,25.70
2007,07,10,13,16,25.70
2007,07,10,13,17,25.60
2007,07,10,13,18,25.60
2007,07,10,13,19,25.70
2007,07,10,13,20,25.90
2007,07,10,13,21,25.90
2007,07,10,13,22,25.80
2007,07,10,13,23,25.80
2007,07,10,13,24,25.90
2007,07,10,13,25,25.90
2007,07,10,13,26,25.90
2007,07,10,13,27,26.00
2007,07,10,13,28,26.10
2007,07,10,13,29,26.30
2007,07,10,13,30,26.40
2007,07,10,13,31,26.50
2007,07,10,13,32,26.60
2007,07,10,13,33,26.70
2007,07,10,13,34,26.70
2007,07,10,13,35,26.60
2007,07,10,13,36,26.60
2007,07,10,13,37,26.60
2007,07,10,13,38,26.80
2007,07,10,13,39,26.80
2007,07,10,13,40,26.80
2007,07,10,13,41,26.80
2007,07,10,13,42,26.70
2007,07,10,13,43,26.60
2007,07,10,13,44,26.50
2007,07,10,13,45,26.40
2007,07,10,13,46,26.30
2007,07,10,13,47,26.40
2007,07,10,13,48,26.50
2007,07,10,13,49,26.60
2007,07,10,13,50,26.60
2007,07,10,13,51,26.60
2007,07,10,13,52,26.60
2007,07,10,13,53,26.70
2007,07,10,13,54,26.70
2007,07,10,13,55,26.80
2007,07,10,13,56,27.00
2007,07,10,13,57,27.20
2007,07,10,13,58,27.20
2007,07,10,13,59,27.10
2007,07,10,14,00,26.80
2007,07,10,14,01,26.70
2007,07,10,14,02,26.60
2007,07,10,14,03,26.40
2007,07,10,14,04,26.20
2007,07,10,14,05,26.20
2007,07,10,14,06,26.30
2007,07,10,14,07,26.30
2007,07,10,14,08,26.40
2007,07,10,14,09,26.60
2007,07,10,14,10,26.60
2007,07,10,14,11,26.60
2007,07,10,14,12,26.60
2007,07,10,14,13,26.60
2007,07,10,14,14,26.70
2007,07,10,14,15,26.70
2007,07,10,14,16,26.70
2007,07,10,14,17,26.60
2007,07,10,14,18,26.40
2007,07,10,14,19,26.30
2007,07,10,14,20,26.30
2007,07,10,14,21,26.30
2007,07,10,14,22,26.30
2007,07,10,14,23,26.30
2007,07,10,14,24,26.50
2007,07,10,14,25,26.60
2007,07,10,14,26,26.70
2007,07,10,14,27,26.80
2007,07,10,14,28,26.90
2007,07,10,14,29,27.10
2007,07,10,14,30,27.10
2007,07,10,14,31,27.10
2007,07,10,14,32,27.10
2007,07,10,14,33,27.10
2007,07,10,14,34,26.90
2007,07,10,14,35,26.70
2007,07,10,14,36,26.60
2007,07,10,14,37,26.60
2007,07,10,14,38,26.50
2007,07,10,14,39,26.50
2007,07,10,14,40,26.60
2007,07,10,14,41,26.80
2007,07,10,14,42,26.90
2007,07,10,14,43,26.90
2007,07,10,14,44,26.90
2007,07,10,14,45,26.90
2007,07,10,14,46,26.90
2007,07,10,14,47,27.00
2007,07,10,14,48,27.10
2007,07,10,14,49,27.20
2007,07,10,14,50,27.20
2007,07,10,14,51,27.20
2007,07,10,14,52,27.20
2007,07,10,14,53,27.40
2007,07,10,14,54,27.50
2007,07,10,14,55,27.60
2007,07,10,14,56,27.50
2007,07,10,14,57,27.40
2007,07,10,14,58,27.40
2007,07,10,14,59,27.50
2007,07,10,15,00,27.60
2007,07,10,15,01,27.70
2007,07,10,15,02,27.70
2007,07,10,15,03,27.70
2007,07,10,15,04,27.70
2007,07,10,15,05,27.70
2007,07,10,15,06,27.80
2007,07,10,15,07,27.90
2007,07,10,15,08,28.00
2007,07,10,15,09,28.00
2007,07,10,15,10,28.00
2007,07,10,15,11,28.10
2007,07,10,15,12,28.20
2007,07,10,15,13,28.30
2007,07,10,15,14,28.40
2007,07,10,15,15,28.40
2007,07,10,15,16,28.50
2007,07,10,15,17,28.60
2007,07,10,15,18,28.60
2007,07,10,15,19,28.60
2007,07,10,15,20,28.60
2007,07,10,15,21,28.70
2007,07,10,15,22,28.80
2007,07,10,15,23,28.80
2007,07,10,15,24,28.70
2007,07,10,15,25,28.70
2007,07,10,15,26,28.70
2007,07,10,15,27,28.60
2007,07,10,15,28,28.50
2007,07,10,15,29,28.30
2007,07,10,15,30,28.20
2007,07,10,15,31,28.20
2007,07,10,15,32,28.20
2007,07,10,15,33,28.30
2007,07,10,15,34,28.30
2007,07,10,15,35,28.40
2007,07,10,15,36,28.70
2007,07,10,15,37,28.80
2007,07,10,15,38,28.80
2007,07,10,15,39,28.90
2007,07,10,15,40,28.90
2007,07,10,15,41,28.90
2007,07,10,15,42,28.90
2007,07,10,15,43,29.00
2007,07,10,15,44,29.10
2007,07,10,15,45,29.30
2007,07,10,15,46,29.40
2007,07,10,15,47,29.40
2007,07,10,15,48,29.50
2007,07,10,15,49,29.50
2007,07,10,15,50,29.40
2007,07,10,15,51,29.30
2007,07,10,15,52,29.30
2007,07,10,15,53,29.30
2007,07,10,15,54,29.20
2007,07,10,15,55,29.20
2007,07,10,15,56,29.20
2007,07,10,15,57,29.30
2007,07,10,15,58,29.30
2007,07,10,15,59,29.30
2007,07,10,16,00,29.20
2007,07,10,16,01,29.10
2007,07,10,16,02,28.90
2007,07,10,16,03,28.90
2007,07,10,16,04,28.90
2007,07,10,16,05,28.90
2007,07,10,16,06,28.80
2007,07,10,16,07,28.80
2007,07,10,16,08,28.80
2007,07,10,16,09,28.70
2007,07,10,16,10,28.70
2007,07,10,16,11,28.80
2007,07,10,16,12,28.90
2007,07,10,16,13,28.90
2007,07,10,16,14,29.00
2007,07,10,16,15,29.20
2007,07,10,16,16,29.20
2007,07,10,16,17,29.30
2007,07,10,16,18,29.30
2007,07,10,16,19,29.20
2007,07,10,16,20,29.10
2007,07,10,16,21,29.00
2007,07,10,16,22,28.90
2007,07,10,16,23,28.80
2007,07,10,16,24,28.80
2007,07,10,16,25,28.80
2007,07,10,16,26,28.90
2007,07,10,16,27,28.90
2007,07,10,16,28,28.90
2007,07,10,16,29,28.90
2007,07,10,16,30,28.90
2007,07,10,16,31,28.90
2007,07,10,16,32,28.90
2007,07,10,16,33,28.90
2007,07,10,16,34,29.00
2007,07,10,16,35,29.10
2007,07,10,16,36,29.10
2007,07,10,16,37,29.10
2007,07,10,16,38,29.20
2007,07,10,16,39,29.30
2007,07,10,16,40,29.30
2007,07,10,16,41,29.20
2007,07,10,16,42,29.10
2007,07,10,16,43,29.10
2007,07,10,16,44,29.10
2007,07,10,16,45,28.90
2007,07,10,16,46,28.90
2007,07,10,16,47,28.80
2007,07,10,16,48,28.80
2007,07,10,16,49,28.80
2007,07,10,16,50,28.80
2007,07,10,16,51,28.80
2007,07,10,16,52,28.80
2007,07,10,16,53,28.80
2007,07,10,16,54,28.90
2007,07,10,16,55,28.80
2007,07,10,16,56,28.70
2007,07,10,16,57,28.70
2007,07,10,16,58,28.70
2007,07,10,16,59,28.80
2007,07,10,17,00,28.80
2007,07,10,17,01,28.90
2007,07,10,17,02,28.90
2007,07,10,17,03,28.90
2007,07,10,17,04,28.80
2007,07,10,17,05,28.90
2007,07,10,17,06,28.90
2007,07,10,17,07,28.90
2007,07,10,17,08,28.90
2007,07,10,17,09,28.90
2007,07,10,17,10,28.90
2007,07,10,17,11,29.00
2007,07,10,17,12,29.10
2007,07,10,17,13,29.10
2007,07,10,17,14,29.10
2007,07,10,17,15,29.10
2007,07,10,17,16,29.10
2007,07,10,17,17,28.90
2007,07,10,17,18,28.90
2007,07,10,17,19,28.90